Vertical_Velocity
-4 -4 -1 -2 -1 2 -9 -1 1 5 2 -4 6 5 3 0 0 -3 -1 2 0 2 5 -1 2 5 -3 1 1 2 4 2 -1 -2 -1 0 4 4 2 2 2 -2 -0
1 3 14 5 -3 -4 -6 -4 6 -0 2 -2 2 2 1 1 1 -1 -1 -1 1 4 9 7 -0 -2 -1 -0 -1 0 1 1 -1 3 3 -2 -1 -3 -0 2 2 3 -4
-8 -49 6 -1 -8 -2 -7 -7 -2 -0 2 1 -2 -2 2 0 -0 1 0 -2 -1 -4 -1 -3 -2 -6 0 4 -2 -4 -5 -1 -1 -0 -2 -3 -3 -1 -3 0 2 3 0
-4 -0 -6 -1 -6 -1 -1 -1 -3 3 0 -2 0 1 -1 3 -1 -1 -1 -3 -2 -2 -0 -2 1 7 4 3 1 2 2 -3 -5 -5 -4 -1 -2 -2 -3 -3 8 -3 1
-4 -0 4 5 -3 1 -6 3 4 1 3 -4 1 1 2 -2 0 -1 -0 -1 0 1 1 3 2 6 4 3 5 3 4 1 2 1 -1 -3 -2 1 -1 -3 -6 -6 -5
5 -10 -2 10 -13 -2 20 14 2 1 8 -6 -3 -5 -1 -1 -0 4 2 -0 3 2 5 1 4 1 -5 -2 2 2 5 5 2 1 2 -0 -2 -4 -4 3 0 0 0
12 -13 -18 39 -14 -9 10 -1 2 4 6 4 -3 -3 1 -6 -2 2 1 -1 6 1 -2 0 2 1 -2 1 -0 2 -3 -5 -1 8 3 0 2 2 1 -2 -3 -3 -6
8 -4 1 -6 5 -23 13 -2 -2 -1 1 -1 -2 4 -1 -4 2 8 1 2 -0 -3 -5 -4 -3 -3 -2 1 0 -4 0 -1 -5 -2 -2 1 4 3 -0 -1 2 1 -1
7 18 7 1 7 16 15 0 1 1 5 2 -1 -3 3 6 3 1 4 -2 1 -1 1 8 6 2 -0 2 1 3 1 -9 -6 -2 -3 -4 1 3 4 3 -3 -0 -2
-2 0 9 12 7 2 3 4 6 1 2 -3 -2 -2 -1 6 -1 3 3 2 4 3 -2 2 -0 0 5 8 -1 1 0 2 4 1 -2 0 -4 -5 6 -0 11 -3 -0
-0 -6 -6 -0 2 -5 -2 -0 1 -4 -8 -6 -0 -1 -1 3 4 -6 6 0 1 -1 -3 -10 -13 -14 -9 2 -2 2 2 9 4 4 1 -0 3 1 -3 1 1 2 4
3 9 5 5 5 0 -2 -7 -3 -1 -3 -5 -6 -0 2 -0 -0 -0 -1 -2 11 2 -11 -7 -8 -15 -45 -24 0 2 12 2 7 6 7 7 0 -2 -2 -1 0 -1 -1
-3 -2 5 -0 -1 -4 1 -4 -4 -4 -6 -2 -6 -7 -5 -3 -6 -4 1 -5 -8 1 1 -13 -11 23 22 17 -9 10 4 8 3 2 1 2 3 5 3 1 1 0 1
-1 -1 -0 5 2 -4 -1 0 -2 -1 -2 -3 -4 -6 -6 -4 -7 -6 -7 -1 -3 37 28 4 5 3 2 -36 13 -6 -2 15 -4 1 -2 7 -8 -2 -2 2 -6 -1 1
5 -2 -1 0 -3 5 5 -1 -4 -5 -2 -5 -5 -2 -3 1 -1 -1 3 1 8 7 5 4 5 5 -1 0 -12 -18 11 23 -20 5 -7 5 -11 1 0 -2 -2 2 3
-1 6 0 1 4 2 4 3 -0 1 -1 -2 -5 -5 -1 3 -2 -4 6 3 5 8 8 4 -4 -1 2 3 -9 -11 5 -8 -10 9 7 -8 0 5 -1 -1 -0 1 -1
-1 4 6 2 1 3 3 -1 -2 -1 -3 -2 -2 -1 -6 1 0 -1 1 7 7 18 7 -0 -3 -2 1 1 1 8 3 1 18 -5 -11 0 -1 -4 2 3 -2 -4 -2
-8 -1 2 2 -1 4 -1 -1 -5 -3 -3 -2 -11 -1 -1 -3 1 0 5 5 5 1 -2 -8 1 1 0 6 7 2 0 1 -2 -1 1 1 0 -1 -2 -1 -2 1 2
3 -5 -5 2 5 -1 5 3 -3 -5 -5 -3 -2 -5 2 -2 2 3 5 -3 -0 -1 -2 3 4 0 1 2 1 3 3 2 -1 -1 4 0 -3 -3 -3 1 -1 1 2
-3 3 3 -2 7 5 8 7 0 -5 -4 -2 -2 -4 -0 -2 -4 3 1 2 -2 4 -1 2 -2 -3 -2 -4 1 1 -1 2 -1 1 -2 -3 -1 -0 0 -2 -0 2 -2
0 -3 5 10 -1 3 4 3 1 -1 -4 -2 -4 -2 3 -2 -1 1 2 7 2 0 2 2 -1 0 1 2 -1 -0 -2 -0 1 -1 -3 -0 -1 -2 0 2 4 3 -1
-2 2 3 2 0 3 6 6 -0 -3 -3 -2 -3 1 2 -3 2 7 4 -4 -0 6 8 1 -1 -2 0 -1 -1 -1 -3 -2 -1 -2 -0 -2 1 2 1 0 -3 -5 -2
-2 -2 4 -1 -1 3 3 6 3 -3 -1 -1 -2 2 -2 -3 -4 2 2 3 2 1 4 3 -1 -2 -1 -3 -4 -2 0 -3 -1 -0 -1 2 0 -1 -2 -2 -2 -3 2
0 1 1 -3 2 -3 -2 -1 -0 -1 3 -0 1 -2 -2 -1 -0 5 11 5 6 3 -1 -2 -1 -0 -2 3 -3 -2 0 -2 -1 2 -2 -2 -4 -3 -1 -1 1 0 -1
-0 6 11 1 -2 -3 -1 -1 -3 -1 3 -0 2 -2 -3 -2 6 5 5 2 3 2 -0 -2 -1 -4 -1 0 -0 0 -4 -4 -2 1 -3 -1 0 3 -2 -3 -2 -1 -3
4 4 -3 19 6 -3 -4 -1 1 4 -0 -0 2 -1 3 2 4 8 8 4 2 -3 -0 1 -2 -3 0 -2 -3 -2 -2 -2 -1 1 -0 -2 -3 -1 -1 -2 -2 -1 -2
Height
1549 1551 1554 1555 1557 1560 1564 1568 1570 1571 1572 1574 1576 1578 1579 1579 1580 1580 1580 1581 1580 1581 1581 1580 1579 1579 1579 1580 1579 1579 1579 1579 1578 1577 1577 1577 1576 1576 1576 1576 1576 1577 1579
1545 1548 1547 1549 1552 1554 1557 1561 1563 1565 1567 1568 1569 1571 1572 1573 1574 1574 1574 1576 1575 1574 1575 1576 1575 1575 1575 1575 1575 1575 1575 1575 1575 1575 1576 1576 1576 1576 1576 1574 1574 1574 1573
1539 1538 1541 1542 1545 1548 1550 1554 1557 1558 1560 1561 1562 1562 1564 1566 1567 1568 1568 1570 1569 1568 1569 1569 1570 1569 1569 1570 1570 1570 1571 1572 1573 1573 1573 1573 1574 1575 1575 1574 1573 1573 1573
1531 1532 1534 1536 1539 1543 1547 1550 1551 1552 1553 1554 1555 1555 1556 1558 1559 1560 1561 1562 1562 1562 1562 1563 1564 1564 1565 1565 1565 1565 1566 1567 1568 1569 1570 1570 1572 1573 1573 1573 1572 1572 1572
1529 1528 1530 1534 1538 1540 1542 1545 1546 1547 1547 1548 1549 1549 1550 1551 1551 1552 1553 1555 1555 1556 1556 1557 1559 1560 1562 1563 1563 1562 1562 1563 1563 1564 1565 1566 1569 1570 1570 1571 1570 1568 1568
1527 1530 1533 1536 1538 1543 1542 1540 1541 1542 1541 1541 1543 1543 1545 1545 1545 1546 1548 1549 1549 1550 1552 1555 1558 1557 1558 1560 1561 1560 1561 1562 1561 1561 1561 1561 1563 1565 1566 1566 1566 1567 1567
1525 1526 1529 1528 1535 1535 1536 1537 1538 1537 1536 1536 1537 1537 1538 1539 1540 1541 1543 1544 1543 1545 1548 1550 1553 1553 1553 1554 1556 1556 1557 1558 1560 1560 1559 1559 1560 1560 1561 1562 1562 1562 1562
1528 1529 1530 1528 1524 1529 1534 1533 1535 1533 1532 1530 1531 1531 1531 1532 1534 1537 1538 1539 1539 1541 1542 1544 1548 1548 1548 1550 1551 1551 1552 1552 1553 1555 1556 1557 1556 1556 1556 1556 1558 1558 1558
1528 1529 1530 1532 1534 1536 1531 1529 1530 1528 1527 1524 1524 1525 1525 1525 1528 1531 1533 1533 1534 1535 1536 1537 1539 1542 1544 1546 1547 1548 1547 1547 1549 1550 1551 1552 1553 1553 1552 1551 1551 1553 1554
1526 1525 1525 1526 1526 1526 1525 1525 1522 1521 1520 1519 1518 1518 1519 1519 1520 1523 1525 1526 1528 1531 1533 1535 1538 1542 1544 1544 1544 1545 1545 1544 1542 1543 1544 1545 1547 1548 1548 1548 1548 1547 1547
1521 1523 1523 1522 1520 1519 1519 1518 1516 1515 1515 1515 1513 1513 1512 1512 1512 1515 1516 1516 1519 1521 1524 1527 1527 1530 1535 1540 1542 1542 1541 1541 1540 1538 1539 1540 1541 1541 1542 1542 1542 1542 1542
1518 1518 1517 1517 1515 1514 1513 1512 1512 1510 1509 1509 1508 1507 1505 1504 1504 1506 1507 1508 1510 1508 1511 1516 1517 1514 1523 1528 1530 1534 1534 1535 1534 1535 1533 1534 1535 1535 1536 1536 1536 1536 1536
1513 1513 1513 1511 1509 1508 1507 1506 1506 1506 1505 1504 1502 1500 1498 1497 1498 1498 1498 1499 1503 1507 1506 1506 1507 1503 1503 1508 1512 1522 1525 1525 1529 1529 1529 1530 1529 1530 1530 1530 1531 1531 1531
1503 1504 1505 1505 1504 1503 1502 1499 1499 1499 1500 1500 1498 1496 1494 1491 1490 1490 1494 1494 1496 1501 1504 1502 1501 1502 1500 1505 1512 1514 1519 1520 1520 1524 1523 1523 1522 1526 1526 1525 1527 1528 1527
1491 1492 1494 1494 1495 1495 1494 1493 1493 1493 1494 1493 1493 1492 1489 1486 1486 1489 1490 1492 1493 1494 1494 1496 1495 1494 1496 1501 1506 1512 1515 1514 1516 1518 1517 1514 1520 1523 1521 1521 1521 1523 1522
1480 1479 1479 1481 1483 1484 1485 1484 1485 1486 1485 1486 1486 1485 1484 1481 1481 1482 1483 1485 1487 1489 1489 1488 1488 1491 1492 1496 1499 1506 1509 1509 1511 1514 1507 1514 1517 1517 1516 1518 1518 1519 1519
1464 1464 1465 1466 1469 1470 1471 1473 1476 1476 1477 1478 1478 1477 1476 1474 1474 1475 1476 1478 1481 1482 1480 1480 1483 1485 1488 1493 1496 1501 1503 1504 1507 1505 1508 1512 1513 1514 1515 1514 1515 1517 1518
1455 1452 1451 1450 1453 1455 1457 1460 1464 1467 1468 1469 1469 1470 1469 1467 1466 1466 1468 1470 1472 1475 1476 1478 1481 1482 1486 1490 1492 1497 1498 1501 1503 1507 1509 1509 1510 1511 1514 1514 1515 1516 1516
1443 1440 1438 1436 1436 1439 1444 1447 1451 1456 1458 1460 1461 1460 1460 1458 1458 1459 1459 1462 1464 1468 1472 1474 1477 1480 1484 1488 1492 1495 1498 1500 1502 1505 1508 1508 1509 1511 1512 1513 1513 1513 1512
1431 1428 1426 1424 1426 1426 1431 1435 1439 1445 1449 1450 1451 1451 1451 1450 1451 1452 1454 1456 1460 1464 1468 1470 1473 1477 1481 1486 1491 1494 1497 1500 1501 1504 1506 1508 1509 1510 1510 1510 1511 1509 1508
1420 1418 1416 1414 1414 1417 1421 1424 1429 1434 1438 1440 1442 1443 1443 1443 1445 1447 1449 1453 1457 1461 1463 1467 1471 1475 1479 1484 1488 1493 1495 1499 1500 1502 1505 1507 1507 1507 1507 1507 1506 1504 1504
1409 1407 1407 1406 1407 1411 1414 1417 1420 1424 1428 1431 1432 1434 1435 1437 1439 1442 1443 1448 1453 1457 1459 1462 1466 1472 1478 1483 1487 1490 1493 1498 1499 1501 1501 1503 1504 1504 1503 1503 1500 1501 1502
1396 1396 1395 1396 1398 1401 1405 1408 1411 1415 1419 1422 1424 1427 1429 1430 1433 1436 1440 1445 1450 1454 1457 1461 1467 1472 1477 1482 1486 1490 1492 1495 1497 1497 1499 1500 1500 1500 1499 1500 1499 1499 1498
1380 1379 1379 1381 1385 1389 1394 1399 1403 1407 1410 1412 1416 1420 1423 1426 1430 1434 1437 1442 1447 1452 1457 1464 1470 1474 1478 1481 1485 1489 1490 1492 1495 1496 1495 1497 1497 1498 1497 1496 1496 1495 1495
1354 1355 1357 1361 1369 1375 1382 1389 1394 1399 1402 1406 1411 1414 1418 1423 1428 1432 1437 1442 1447 1454 1459 1465 1470 1474 1478 1481 1484 1486 1488 1491 1492 1493 1493 1495 1494 1494 1494 1494 1493 1493 1491
1329 1330 1335 1343 1352 1363 1371 1380 1386 1391 1396 1400 1405 1411 1415 1420 1427 1431 1436 1442 1448 1453 1461 1465 1469 1474 1477 1480 1483 1486 1488 1489 1491 1491 1492 1493 1492 1491 1491 1491 1490 1490 1488